Location: Gammelsbach
(49.5261°N, 8.9630°E)
Time: 05:27:34
(UTC+00:00)

Cosmos 2227 Rocket - Pass Details

Date: 17 June 2025
Orbit: 836 x 845 km, 71.0° (Epoch: 12 July)

Event Time Altitude Azimuth Distance (km) Brightness Sun altitude
Rises 20:50:03 0° 217° (SW) 3,379 5.2 -9.3°
Reaches altitude 10° 20:52:30 10° 221° (SW) 2,449 4.5 -9.6°
Maximum altitude 20:58:04 63° 302° (WNW) 935 2.7 -10.1°
Drops below altitude 10° 21:03:42 10° 24° (NNE) 2,471 5.1 -10.6°
Sets 21:06:12 0° 28° (NNE) 3,411 5.8 -10.8°
